STARLINK-33630, 63477

Orbit data source: Space-Track

STARLINK-33630, 63477 is a payload satellite owned by SpaceX/Seattle (US) in LEO that was launched on Sun, 06 Apr 2025 UTC via an FALCON 9 launch vehicle from the Air Force Eastern Test Range (AFETR). Payload-class satellites include a variety of spacecraft equipped with specific instruments for various scientific and technological missions. These include communications satellites like Starlink; space stations such as the ISS; scientific satellites like the Hubble; Earth observation satellites from companies like Planet Labs, Umbra, and HawkEye 360; GPS; miniature CubeSats for education and research; and military/defense satellites.

Loading next visibility...
Identifier
63477, 2025-070T
Orbit
LEO
Country
Flag of USUS
Related business
Manufacturer
SpaceX/Seattle
Mission
Operational Commercial Communications
Bus & Motor
STARLINK V2MO, Unknown motor
Mass
575 kg wet, ~530 kg dry
Launch date (UTC)
2025-04-06 (1 year ago)
Launch vehicle
FALCON 9
Launch site
Air Force Eastern Test Range (AFETR)
Object type
Payload
Rocket body
Debris
Shape & HBR
Box + 2 Pan, 17.7 m
Radar Cross Section
36.964 m², Large (>1 m²)

Expand to show TLE details & history
Last TLE update: 1 day ago

TLE from 1 day ago
0 STARLINK-33630
1 63477U 25070T   26169.09714185  .00024937  00000-0  91198-3 0  9996
2 63477  43.0029  49.1703 0001495 283.8846  76.1839 15.27603630 68370
Epoch: 2026-06-18T02:19Z
TLE epoch observation values (Epoch: 2026-06-18T02:19:53.055Z)
Latitude
-0.00006°
Longitude
107.85381°
Altitude
482.509 km
Speed
7.626 km/s
True Right ascension
03h 16m 40s
True Declination
0° 00' 00"
Sunlit
Object was in daylight at epoch
Visualization orbit readout
Latitude
Unknown
Longitude
Unknown
Altitude
Unknown
Speed
Unknown
Apparent Right ascension
Unknown
Apparent Declination
Unknown
Sunlit
N/A
Visualization observer readout
Local Sidereal Time
14:04:05
Azimuth
Unknown
Elevation
Unknown
Doppler factor
Unknown
Orbital elements
Apogee altitude
485.949 km
Perigee altitude
483.897 km
Semi-major axis
6,863.06 km
Eccentricity
0.00015
Inclination
43.0029°
RAAN
49.1703°
Arg. of periapsis
283.8846°
True anomaly
76.20054°
Mean anomaly
76.1839°
Eccentric anomaly
76.19222°
Mean motion
3.81739 °/min
Orbital period
94.31 mins
BSTAR
0.00091198
Loading maneuver chart data...
Computing Atmospheric mass density...
Loading historical data...
Loading historical data...
Loading historical data...
Loading historical data...
Loading historical data...
Loading historical data...
Loading historical data...

Documentation

Showing up to 5 results
|